Weather History for LTAF - November, 2012

Change the Weather History Date:

Thursday, November 8, 2012

  Actual Average Record
Temperature  
Mean Temperature 64 °F -  
Max Temperature 68 °F 67 °F 80 °F (2000)
Min Temperature 60 °F 46 °F 39 °F (2011)
Degree Days  
Heating Degree Days 1    
Growing Degree Days 14 (Base 50)    
Moisture  
Dew Point 60 °F    
Average Humidity 87    
Maximum Humidity 94    
Minimum Humidity 78    
Precipitation  
Precipitation 0.00 in 0.12 in - ()
Sea Level Pressure  
Sea Level Pressure 29.89 in    
Wind  
Wind Speed 6 mph ()    
Max Wind Speed 15 mph    
Max Gust Speed -    
Visibility 4.2 miles    
Events Rain , Thunderstorm    
Averages and records for this station are not official NWS values.
T = Trace of Precipitation, MM = Missing Value Source: Averaged Metar Reports

Daily Weather History Graph

Daily Weather History Graph

Search for Another Location

Airport or City:

Trip Planner

Search our weather history database for the weather conditions in past years. The results will help you decide how hot, cold, wet, or windy it might be!

Date:

Astronomy

Nov. 08, 2012 Rise Set
Actual Time 6:10 AM EET 4:34 PM EET
Civil Twilight 5:42 AM EET 5:01 PM EET
Nautical Twilight 5:11 AM EET 5:32 PM EET
Astronomical Twilight 4:41 AM EET 6:03 PM EET
Moon No Moon Rise 12:56 PM EET (11/8)
Length of Visible Light 11h 18m
Length of Day
10h 24m
Waning Crescent, 36% of the Moon is Illuminated
Nov 8
Waning Crescent
Nov 14
New
Nov 20
First Quarter
Nov 28
Full
Dec 6
Last Quarter

Hourly Weather History & Observations

Time (EET) Temp. Dew Point Humidity Pressure Visibility Wind Dir Wind Speed Gust Speed Precip Events Conditions
12:20 AM 62.6 °F 60.8 °F 94% 29.95 in 6.2 mi NE 4.6 mph - N/A   Scattered Clouds
12:50 AM 62.6 °F 59.0 °F 88% 29.95 in 6.2 mi NNE 5.8 mph - N/A   Scattered Clouds
1:20 AM 62.6 °F 59.0 °F 88% 29.95 in 6.2 mi NNE 5.8 mph - N/A   Scattered Clouds
1:50 AM 64.4 °F 60.8 °F 88% 29.95 in 6.2 mi North 5.8 mph - N/A   Scattered Clouds
2:20 AM 64.4 °F 60.8 °F 88% 29.95 in 6.2 mi North 3.5 mph - N/A   Scattered Clouds
2:50 AM 62.6 °F 59.0 °F 88% 29.95 in 6.2 mi North 3.5 mph - N/A   Scattered Clouds
3:20 AM 62.6 °F 59.0 °F 88% 29.92 in 6.2 mi NNE 6.9 mph - N/A   Scattered Clouds
3:50 AM 64.4 °F 60.8 °F 88% 29.92 in 6.2 mi North 5.8 mph - N/A   Scattered Clouds
4:20 AM 64.4 °F 60.8 °F 88% 29.92 in 6.2 mi NNE 4.6 mph - N/A   Scattered Clouds
4:50 AM 64.4 °F 60.8 °F 88% 29.92 in 6.2 mi North 3.5 mph - N/A   Scattered Clouds
5:20 AM 64.4 °F 60.8 °F 88% 29.92 in 6.2 mi NE 6.9 mph - N/A   Mostly Cloudy
5:50 AM 64.4 °F 60.8 °F 88% 29.92 in 6.2 mi NE 5.8 mph - N/A   Mostly Cloudy
6:20 AM 64.4 °F 60.8 °F 88% 29.92 in 6.2 mi NE 5.8 mph - N/A   Mostly Cloudy
6:50 AM 66.2 °F 62.6 °F 88% 29.92 in 6.2 mi East 4.6 mph - N/A Rain Light Rain Showers
7:20 AM 66.2 °F 62.6 °F 88% 29.92 in 6.2 mi NE 4.6 mph - N/A   Mostly Cloudy
7:50 AM 66.2 °F 62.6 °F 88% 29.92 in 6.2 mi NE 4.6 mph - N/A   Mostly Cloudy
8:20 AM 66.2 °F 60.8 °F 83% 29.92 in 6.2 mi NE 5.8 mph - N/A   Mostly Cloudy
8:50 AM 68.0 °F 60.8 °F 78% 29.92 in 3.1 mi NNE 5.8 mph - N/A   Mostly Cloudy
9:20 AM 68.0 °F 60.8 °F 78% 29.92 in 3.1 mi ENE 3.5 mph - N/A   Mostly Cloudy
9:50 AM 68.0 °F 60.8 °F 78% 29.92 in 3.1 mi NNE 4.6 mph - N/A   Mostly Cloudy
10:20 AM 68.0 °F 60.8 °F 78% 29.92 in 3.1 mi NNW 4.6 mph - N/A Rain Light Rain Showers
10:50 AM 66.2 °F 62.6 °F 88% 29.92 in 3.1 mi NW 5.8 mph - N/A Rain Light Rain Showers
11:20 AM 66.2 °F 62.6 °F 88% 29.89 in 3.1 mi North 4.6 mph - N/A Rain Light Rain Showers
11:50 AM 66.2 °F 62.6 °F 88% 29.89 in 3.1 mi North 3.5 mph - N/A Rain Light Rain Showers
12:20 PM 66.2 °F 62.6 °F 88% 29.86 in 3.1 mi North 4.6 mph - N/A Rain Light Rain Showers
12:50 PM 68.0 °F 62.6 °F 83% 29.86 in 3.1 mi NNE 6.9 mph - N/A Rain Light Rain Showers
1:20 PM 68.0 °F 62.6 °F 83% 29.86 in 3.1 mi NE 8.1 mph - N/A   Mostly Cloudy
1:50 PM 68.0 °F 62.6 °F 83% 29.86 in 3.1 mi NE 6.9 mph - N/A Rain Light Rain Showers
2:20 PM 68.0 °F 60.8 °F 78% 29.86 in 3.1 mi ENE 6.9 mph - N/A Rain Light Rain Showers
2:50 PM 66.2 °F 59.0 °F 78% 29.86 in 3.1 mi ENE 4.6 mph - N/A Rain Light Rain Showers
3:20 PM 66.2 °F 60.8 °F 83% 29.86 in 3.1 mi NNE 4.6 mph - N/A Rain Light Rain Showers
3:50 PM 66.2 °F 60.8 °F 83% 29.86 in 3.1 mi North 5.8 mph - N/A Rain Light Rain Showers
4:20 PM 64.4 °F 60.8 °F 88% 29.86 in 3.1 mi North 11.5 mph - N/A Rain Light Rain Showers
4:50 PM 64.4 °F 60.8 °F 88% 29.83 in 3.1 mi NNE 11.5 mph - N/A Rain Light Rain Showers
5:20 PM 62.6 °F 59.0 °F 88% 29.83 in 3.1 mi NNE 12.7 mph - N/A Rain Rain Showers
5:50 PM 62.6 °F 59.0 °F 88% 29.83 in 3.1 mi NNE 11.5 mph - N/A Rain Rain Showers
6:20 PM 62.6 °F 59.0 °F 88% 29.83 in 3.1 mi North 10.4 mph - N/A Rain , Thunderstorm Light Thunderstorms and Rain
6:50 PM 62.6 °F 59.0 °F 88% 29.86 in 3.1 mi NW 10.4 mph - N/A Rain , Thunderstorm Light Thunderstorms and Rain
7:20 PM 60.8 °F 59.0 °F 94% 29.86 in 3.1 mi NNW 9.2 mph - N/A Rain , Thunderstorm Light Thunderstorms and Rain
7:50 PM 60.8 °F 59.0 °F 94% 29.86 in 3.1 mi North 13.8 mph - N/A Rain , Thunderstorm Light Thunderstorms and Rain
8:20 PM 62.6 °F 59.0 °F 88% 29.83 in 3.1 mi NE 15.0 mph - N/A Rain , Thunderstorm Light Thunderstorms and Rain
8:50 PM 62.6 °F 59.0 °F 88% 29.86 in 3.1 mi North 6.9 mph - N/A Rain , Thunderstorm Light Thunderstorms and Rain
9:20 PM 62.6 °F 59.0 °F 88% 29.83 in 3.1 mi ENE 15.0 mph - N/A Rain , Thunderstorm Light Thunderstorms and Rain
9:50 PM 62.6 °F 59.0 °F 88% 29.83 in 3.1 mi NNE 11.5 mph - N/A Rain , Thunderstorm Light Thunderstorms and Rain
10:20 PM 62.6 °F 59.0 °F 88% 29.86 in 3.1 mi WNW 8.1 mph - N/A Rain Light Rain Showers
10:50 PM 60.8 °F 59.0 °F 94% 29.86 in 3.1 mi NNW 3.5 mph - N/A Rain , Thunderstorm Light Thunderstorms and Rain
11:20 PM 62.6 °F 59.0 °F 88% 29.83 in 3.1 mi NNE 11.5 mph - N/A Rain , Thunderstorm Light Thunderstorms and Rain
11:50 PM 62.6 °F 59.0 °F 88% 29.80 in 3.1 mi NNE 12.7 mph - N/A   Mostly Cloudy